RH
35 55 45 40 41 38 41 41 42 45 42 47 46 39 41 42 42 40 41 38 39 40 40 40 41 42 40 41 43 42 41 36 30 29 23 25 30 29
30 39 42 41 37 41 41 41 42 44 42 47 44 38 39 42 43 40 37 39 39 39 38 36 35 39 43 44 44 46 43 38 37 38 34 30 32 36
30 31 35 36 41 39 41 40 39 46 44 45 43 38 38 39 41 41 40 41 43 43 46 49 51 49 48 51 52 51 51 50 49 50 55 47 42 38
30 31 32 34 40 40 41 42 41 44 43 43 45 38 36 36 40 40 45 47 51 53 56 57 58 57 58 56 54 52 52 49 47 46 45 49 49 44
29 30 30 34 34 37 37 38 42 43 45 40 42 40 36 35 39 45 50 53 55 57 59 60 59 61 65 63 60 56 52 49 48 48 48 46 51 48
30 31 31 34 34 37 38 39 44 44 44 45 42 38 39 39 41 46 48 50 50 53 59 61 62 63 68 66 65 64 61 56 49 48 46 46 46 51
34 33 33 33 35 37 40 39 45 46 49 47 46 41 36 39 43 49 46 56 57 57 56 59 63 66 69 68 67 67 65 60 52 47 46 47 48 50
39 40 39 38 40 39 39 41 43 48 48 48 44 39 38 40 45 53 56 58 53 54 61 61 64 66 70 70 69 68 63 62 58 49 48 48 51 54
44 44 45 44 44 44 43 45 44 44 44 45 42 39 39 41 47 52 55 54 53 59 61 65 63 64 66 67 66 64 63 64 62 58 53 52 53 55
44 47 51 50 50 46 48 47 46 45 42 44 45 43 42 41 47 51 51 52 56 57 62 63 63 64 61 63 64 65 65 66 67 67 65 61 58 60
48 48 51 54 51 49 49 47 50 49 47 45 45 45 41 44 48 49 49 59 62 59 64 65 63 63 65 67 68 67 67 69 68 68 67 68 62 61
50 49 52 55 53 47 48 47 46 51 51 48 46 45 45 44 47 49 55 57 59 62 64 65 63 63 66 68 66 65 66 68 67 69 70 68 66 62
54 53 50 50 49 51 52 51 50 49 51 50 46 46 46 47 49 53 54 56 55 56 60 65 64 63 69 68 66 62 61 62 64 66 68 66 67 64
56 61 61 54 53 54 53 51 50 53 51 49 47 46 47 48 50 54 55 56 56 56 61 64 60 63 64 62 58 57 60 62 67 68 69 70 69 71
63 62 56 58 56 55 55 55 53 51 52 51 49 49 48 53 54 54 55 55 60 62 64 63 66 67 66 60 60 57 62 65 69 68 64 67 71 76
58 57 56 56 57 58 61 61 62 57 56 56 53 54 54 57 59 60 58 61 64 63 67 68 68 72 72 64 61 60 63 70 69 62 62 68 73 76
56 55 56 58 59 59 63 63 64 63 65 60 57 57 60 65 63 67 63 64 63 65 66 69 72 74 74 67 64 63 66 71 68 66 65 71 79 84
63 62 63 63 64 66 67 66 71 70 70 67 68 67 66 66 65 69 67 66 66 72 67 73 76 77 71 69 68 69 69 72 72 71 74 77 80 84
64 66 66 65 66 70 72 67 69 70 74 72 76 80 76 73 72 71 72 73 72 71 75 74 78 79 75 68 72 75 75 72 71 72 79 82 86 89
66 66 66 67 71 73 72 71 75 73 76 78 81 81 81 78 83 81 78 76 77 81 81 83 83 84 81 77 76 81 80 77 75 74 83 88 90 91
68 67 66 69 72 72 72 74 75 83 89 90 94 91 90 89 90 88 86 88 87 87 86 90 90 91 91 90 87 85 86 84 79 79 84 90 93 94
65 66 67 68 68 71 73 75 74 76 89 95 98 97 98 98 98 98 97 94 91 93 93 94 93 94 95 96 92 94 95 87 84 87 93 95 98 98
67 68 67 66 71 69 69 73 75 76 82 93 96 97 94 97 98 96 89 92 87 88 90 95 99 99 99 99 98 97 95 92 90 94 96 98 98 99